User: anonymous   Login
Location: Albany
(35.0000°S, 118.0000°E)
Time: 01:51:27
(UTC-05:00)
Language:

Transit 2A - Orbit

View from above orbital plane
View from above orbital plane
View from above satellite
View from above satellite

Ground track
Ground track

The orbit data is extracted from the following two-line orbital elements,

1 00045U 60007A   16343.92975355 -.00000003  00000-0  26206-4 0  9998
2 00045  66.6926 170.8316 0255278 173.6601 186.7838 14.33525971938297
Epoch (UTC): 08 December 2016 22:18:50
Eccentricity: 0.0255278
inclination: 66.6926°
perigee height: 597 km
apogee height: 963 km
right ascension of ascending node: 170.8316°
argument of perigee: 173.6601°
revolutions per day: 14.33525971
mean anomaly at epoch: 186.7838°
orbit number at epoch: 93829

The dashed part of the orbit path shows where the satellite is in the earth's shadow,  

DLR